Location: Meanaryar
(48.4161°N, 4.7315°W)
Time: 17:11:19
(UTC+00:00)

Cosmos 494 Rocket - Pass Details

Date: 18 September 2020
Orbit: 741 x 771 km, 74.1° (Epoch: 30 October)

Event Time Altitude Azimuth Distance (km) Brightness Sun altitude
Rises 19:55:55 0° 340° (NNW) 3,243 7.9 -15.6°
Reaches altitude 10° 19:58:23 10° 347° (NNW) 2,317 7.0 -16.0°
Maximum altitude 20:03:27 46° 61° (ENE) 1,029 4.4 -16.8°
Enters shadow 20:05:39 30° 114° (ESE) 1,368 4.7 -17.1°
